Regional Weather Roundup
Issued by NWS Upton, NY

Current Version | Previous Version | Text Only | Print | Product List | Glossary On
Versions: 1 2 3 4 5 6 7 8 9 10 11 12 13 14 15 16 17 18 19 20 21 22 23 24 25 26 27 28 29 30 31 32 33 34 35 36 37 38 39 40 41 42 43 44 45 46 47 48 49 50
252
ASUS41 KOKX 270705
RWROKX

REGIONAL WEATHER ROUNDUP
NATIONAL WEATHER SERVICE NEW YORK NY
300 AM EDT WED JUL 27 2016

NOTE: "FAIR" INDICATES FEW OR NO CLOUDS BELOW 12,000 FEET WITH NO
SIGNIFICANT WEATHER AND/OR OBSTRUCTIONS TO VISIBILITY.

NYZ071-072-176-178-NJZ106-104-270800-
NEW YORK CITY METRO AREA

CITY           SKY/WX    TMP DP  RH WIND       PRES   REMARKS
Central Park   PTCLDY    77  61  57 CALM      29.96S
LaGuardia APRT MOCLDY    79  64  60 NE6       29.92S
Kennedy INTL   PTCLDY    77  61  57 N6        29.93F
Newark/Liberty MOCLDY    77  62  59 N5        29.93S
Bronx Bot Gard   N/A     73  63  68 N2        29.93F
Wall St Helipt SUNNY     79  64  61 W5        29.93F
Teterboro      CLEAR     75  61  61 CALM      29.92F
$$

NYZ177-179-078>081-270800-
LONG ISLAND NEW YORK

CITY           SKY/WX    TMP DP  RH WIND       PRES   REMARKS
Farmingdale    CLEAR     75  63  66 MISG      29.93S
MacArthur/ISP  PTCLDY    72  64  76 N6        29.91F
Shirley        PTCLDY    71  63  75 N5        29.92F
Riverhead      NOT AVBL
Westhampton    CLEAR     65  61  87 N3        29.94S
Southhampton     N/A     73  66  78 NW2       29.88
Bridgehampton    N/A     72  64  78 CALM      29.91
East Hampton   FAIR      72  63  72 N5        29.91S
Montauk          N/A     72  65  78 CALM      29.93R
$$

NYZ052-065-067-270800-
HUDSON VALLEY

CITY           SKY/WX    TMP DP  RH WIND       PRES   REMARKS
White Plains   CLEAR     70  62  76 NW7       29.94S
Newburgh       NOT AVBL
Montgomery     CLEAR     62  61  96 CALM      29.96S
Poughkeepsie   CLEAR     65  62  90 CALM      29.94S
Albany         PTCLDY    65  58  78 CALM      29.95S
$$

NJZ001-105-106-008-010-013-015-019>022-104-270800-
NEW JERSEY

CITY           SKY/WX    TMP DP  RH WIND       PRES   REMARKS
Newark/Liberty MOCLDY    77  62  59 N5        29.93S
Teterboro      CLEAR     75  61  61 CALM      29.92F
Caldwell       CLEAR     71  64  78 CALM      29.95S
Morristown     MOCLDY    66  63  88 CALM      29.95S
Somerville     MOCLDY    68  65  90 CALM      29.93S
Linden         PTSUNNY   76  61  60 CALM      29.95S
Sussex         PTCLDY    64  63  96 CALM      29.97S
Abdover          N/A     64  63  96 CALM      29.98R
Trenton        PTCLDY    73  65  75 N5        29.93F
Millville      CLOUDY    75  72  90 CALM      29.92S FOG
Atlantic City  CLOUDY    75  71  87 N3        29.93R
Wrightstown    CLEAR     73  67  83 NE3       29.91S
Toms River     PTCLDY    71  68  90 CALM      29.93F
Belmar         CLEAR     73  67  81 NW5       29.95S
$$

PAZ047>061-062-071-270800-
EASTERN PENNSYLVANIA

CITY           SKY/WX    TMP DP  RH WIND       PRES   REMARKS
Philadelphia   CLOUDY    79  67  66 NE6       29.93S
Allentown      PTCLDY    70  64  81 CALM      29.96S
Scranton       CLEAR     66  60  81 E7        29.99S
$$

CTZ002-004>006-009-010-012-RIZ004-006-007-MAZ004-011-015-270800-
SOUTHERN NEW ENGLAND
 IN CT

CITY           SKY/WX    TMP DP  RH WIND       PRES   REMARKS
Bradley INTL   PTCLDY    69  61  75 N5        29.92S
Hartford       CLEAR     73  62  68 CALM      29.92S
Danbury        CLEAR     64  61  90 SW3       29.96S
Wtrbury/Oxford   N/A     66  57  72 N7        29.95F
Bridgeport     CLEAR     75  62  64 N6        29.92S
Meriden        PTCLDY    68  63  84 CALM      29.93S
New Haven      PTCLDY    70  62  76 N6        29.92F
Chester        FAIR      72  63  73 CALM      29.93F
Groton         CLEAR     74  63  68 N5        29.90S
Wilimantic     NOT AVBL

 IN RI

CITY           SKY/WX    TMP DP  RH WIND       PRES   REMARKS
Providence     CLEAR     72  61  68 W3        29.91S
Block Island   CLEAR     71  64  78 NW6       29.92R
Westerly       CLEAR     72  61  68 CALM      29.92R
 IN MA

CITY           SKY/WX    TMP DP  RH WIND       PRES   REMARKS
Boston         CLEAR     77  59  53 NW10      29.89S
Worchester     CLEAR     68  57  68 NW9       29.95F
Westfield      PTCLDY    66  61  84 CALM      29.93S
Provincetown   CLEAR     71  65  81 NW6       29.89R
Nantucket      PTCLDY    74  67  78 N10       29.88R
$$

ANZ330-335-338-340-345-350-353-355-270800-
COASTAL MARINE OBSERVATIONS


STATION/POSITION TIME  SKY/WX   TEMP    WIND        PRES    VSBY  WAVE
                                AIR SEA DIR/SP/G                  HT/PER
                 (UTC)          (F)     (DEG/KT/KT) (MB)    (MI)  (FT/S)
NY HARB ENTRANCE 0650            76 75  350/  6/  8 1012.9          2/ 6
20S FIRE ISLAND  0550            77 76  340/  4/  4 1012.7          3/ 6
GREAT SOUTH BAY  NOT AVBL
23 SSW MONTAUK P 0550            73 70  300/  8/  8 1012.9          3/ 7
15 E BARNEGAT LI 0622               77                N/A           2/ 6
HUDSON CANYON    0550            79 78              1012.5          3/ 7
KINGS POINT      0600            74 74              1013.3
EXECUTION ROCKS  0600            74     360/  2/  2   N/A
CENTRAL LI SOUND 0630            76 74  350/  6/  6   N/A           0
EASTERN LI SOUND 0600            72 69  310/  4/  6   N/A
ROBBINS REEF     0600            80     340/  5/  7 1013.0
$$


>>>>>>>>>>>>>>>>>>>>>>>>>>>> KEY <<<<<<<<<<<<<<<<<<<<<<<<<<<
>                                                          <
>     SKY/WX - Sky Condition/Present Weather               <
>     TMP    - Temperature in Fahrenheit                   <
>     DP     - Dew Point in Fahrenheit                     <
>     RH     - Relative Humidity in Percent                <
>     WIND   - Direction (from) and Speed in MPH           <
>     PRES   - Mean Sea Level Pressure (inches of Hg)      <
>     WCI    - Wind Chill Index                            <
>     VSB    - VISIBILITY IN MILES                         <
>     HX     - HEAT INDEX                                  <
>     TC     - TEMPERATURE IN CELSIUS                      <
>     VRB    - VARIABLE WIND DIRECTION                     <
>                                                          <
>>>>>>>>>>>>>>>>>>>>>>>>>>>> KEY <<<<<<<<<<<<<<<<<<<<<<<<<<<




USA.gov is the U.S. government's official web portal to all federal, state and local government web resources and services.